STARLINK-36739

Last updated on Sun Mar 15 2026 00:02:06 GMT+0000 (Coordinated Universal Time)

1 67802U 26032F 26073.49833312 .00106576 00000+0 70587-3 0 9991 2 67802 97.2844 260.2733 0001493 48.2165 311.9227 15.75211082 5546
UTC large
Height (km)
Speed (km/s)
/
Latitude / Longitude
Inclination (degrees)
Orbital Period (minutes)
Azimuth
Elevation
Range (km)
Doppler Factor

Next 0 passes for location: London (51.5072 / 0.1276)

Sorry there are no passes over London.